Regional Weather Roundup
Issued by NWS Upton, NY

Home | Current Version | Previous Version | Text Only | Print | Product List | Glossary On
Versions: 1 2 3 4 5 6 7 8 9 10 11 12 13 14 15 16 17 18 19 20 21 22 23 24 25 26 27 28 29 30 31 32 33 34 35 36 37 38 39 40 41 42 43 44 45 46 47 48 49 50
000
ASUS41 KOKX 231205
RWROKX

REGIONAL WEATHER ROUNDUP
NATIONAL WEATHER SERVICE NEW YORK NY
800 AM EDT TUE SEP 23 2014

NOTE: "FAIR" INDICATES FEW OR NO CLOUDS BELOW 12,000 FEET WITH NO
SIGNIFICANT WEATHER AND/OR OBSTRUCTIONS TO VISIBILITY.

NYZ071-072-176-178-NJZ106-104-231300-
NEW YORK CITY METRO AREA


CITY           SKY/WX    TMP DP  RH WIND       PRES   REMARKS
CENTRAL PARK   SUNNY     53  40  61 CALM      30.32R
LAGUARDIA APRT MOSUNNY   55  41  59 N7        30.29R
KENNEDY INTL   MOSUNNY   56  41  57 N5        30.30R
NEWARK/LIBERTY MOSUNNY   54  42  64 NE6       30.30R
BRNX BOT. GARD   N/A     54  41  62 W1        30.29R
TETERBORO      SUNNY     52  41  66 CALM      30.29R
$$

NYZ177-179-078>081-231300-
LONG ISLAND NEW YORK

CITY           SKY/WX    TMP DP  RH WIND       PRES   REMARKS
FARMINGDALE    SUNNY     52  44  74 CALM      30.29R
ISLIP          MOSUNNY   56  44  64 N3        30.26R
SHIRLEY        SUNNY     55  45  68 N8        30.28R
WESTHAMPTON    SUNNY     54  43  66 NW5       30.29R
MONTAUK POINT    N/A     57  39  51 N7        30.28R
$$

NYZ052-065-067-231300-
HUDSON VALLEY

CITY           SKY/WX    TMP DP  RH WIND       PRES   REMARKS
WHITE PLAINS   SUNNY     50  43  77 NW5       30.28R
NEWBURGH       SUNNY     45  41  87 SW7       30.30R
MONTGOMERY     MOSUNNY   43  40  89 S5        30.29R
POUGHKEEPSIE   SUNNY     44  40  85 CALM      30.29R
ALBANY         MOSUNNY   49  43  80 SW6       30.28R
$$

NJZ001-105-106-008-010-013-015-019>022-104-231300-
NEW JERSEY

CITY           SKY/WX    TMP DP  RH WIND       PRES   REMARKS
NEWARK/LIBERTY MOSUNNY   54  42  64 NE6       30.30R
TETERBORO      SUNNY     52  41  66 CALM      30.29R
CALDWELL       SUNNY     47  41  80 CALM      30.30R
MORRISTOWN     SUNNY     45  43  93 CALM      30.30R
SOMERVILLE     SUNNY     43  39  86 CALM      30.29R
LINDEN         FAIR      55  44  67 CALM      30.32R
SUSSEX         SUNNY     46  42  86 CALM      30.30R
ANDOVER          N/A     49  42  77 VRB6      30.29S
TRENTON        SUNNY     49  42  77 CALM      30.30R
MILLVILLE      SUNNY     47  43  86 NW8       30.31R
ATLANTIC CITY  SUNNY     46  43  89 NW6       30.29R
WRIGHTSTOWN    SUNNY     49  43  79 N6        30.28R
TOMS RIVER     SUNNY     45  39  81 CALM      30.30R
BELMAR         SUNNY     46  37  71 NW5       30.30R
$$

PAZ047>061-062-071-231300-
EASTERN PENNSYLVANIA

CITY           SKY/WX    TMP DP  RH WIND       PRES   REMARKS
PHILADELPHIA   MOSUNNY   52  41  66 NW5       30.32R
ALLENTOWN      SUNNY     46  41  82 SW3       30.31R
SCRANTON       SUNNY     44  40  85 CALM      30.31R
$$

CTZ002-004>006-009-010-012-RIZ004-006-007-MAZ004-011-015-231300-
SOUTHERN NEW ENGLAND
 IN CT

CITY           SKY/WX    TMP DP  RH WIND       PRES   REMARKS
BRADLEY INTL   MOSUNNY   50  41  71 W3        30.26R
HARTFORD       SUNNY     50  44  80 S3        30.27R
DANBURY        SUNNY     46  42  86 CALM      30.30R
WTRBRY/OXFORD  MOSUNNY   45  37  76 CALM      30.30R
BRIDGEPORT     SUNNY     53  45  74 NW5       30.29R
MERIDEN        SUNNY     45  42  89 CALM      30.29R
NEW HAVEN      MOSUNNY   53  44  71 W6        30.29R
CHESTER        FAIR      48  43  81 W5        30.28R
GROTON         SUNNY     50  45  83 N3        30.28R
WILLIMANTIC    FOG       41  39  93 CALM      30.28R VSB<1/4

 IN RI

CITY           SKY/WX    TMP DP  RH WIND       PRES   REMARKS
PROVIDENCE     MOSUNNY   49  41  74 W5        30.27R
BLOCK ISLAND   SUNNY     55  37  50 N7        30.26R
WESTERLY       SUNNY     48  42  80 CALM      30.28R

 IN MA

CITY           SKY/WX    TMP DP  RH WIND       PRES   REMARKS
BOSTON         MOSUNNY   53  40  61 SW6       30.24R
WORCESTER      SUNNY     45  39  79 W7        30.24R
WESTFIELD      SUNNY     44  41  89 CALM      30.25R
PROVINCETOWN   SUNNY     55  39  54 NW12      30.24R
NANTUCKET      SUNNY     57  42  57 N9        30.24R
$$

ANZ330-335-338-340-345-350-353-355-231300-
COASTAL MARINE OBSERVATIONS


STATION/POSITION TIME  SKY/WX   TEMP    WIND        PRES    VSBY  WAVE
                                AIR SEA DIR/SP/G                  HT/PER
                 (UTC)          (F)     (DEG/KT/KT) (MB)    (MI)  (FT/S)
NY HARB ENTRANCE 1200            58 69   30/ 10/ 12 1025.9          2/ 8
4S FIRE IS       1200               69                N/A           3/ 8
20S FIRE ISLAND  1200            58 68  360/ 12/ 16 1025.3          3/ 9
23SW MTP         1200                                 N/A           3/ 9
HUDSON CANYON    1200            60 70   10/ 14/ 19 1024.2          5/ 5
EXECUTION ROCKS  1200            55 69  330/ 10/ 12   N/A
WESTERN LI SOUND 1200            55     340/  6/  8   N/A           0
CENTRAL LI SOUND 1100            56 69  330/ 10/ 14   N/A           1
EASTERN LI SOUND 1100            54 67  300/  6/ 10   N/A
ROBBINS REEF     1200            54     340/  5/  6 1024.5
$$


>>>>>>>>>>>>>>>>>>>>>>>>>>>> KEY <<<<<<<<<<<<<<<<<<<<<<<<<<<
>                                                          <
>     SKY/WX - SKY CONDITION/PRESENT WEATHER               <
>     TMP    - TEMPERATURE IN FAHRENHEIT                   <
>     DP     - DEWPOINT IN FAHRENHEIT                      <
>     RH     - RELATIVE HUMIDITY IN PERCENT                <
>     WIND   - DIRECTION AND SPEED IN MPH                  <
>     PRES   - MEAN SEA LEVEL PRESSURE IN INCHES OF HG     <
>     WCI    - WIND CHILL INDEX                            <
>     VSB    - VISIBILITY IN MILES                         <
>     HX     - HEAT INDEX                                  <
>     TC     - TEMPERATURE IN CELSIUS                      <
>     VRB    - VARIABLE WIND DIRECTION                     <
>                                                          <
>>>>>>>>>>>>>>>>>>>>>>>>>>>> KEY <<<<<<<<<<<<<<<<<<<<<<<<<<<




USA.gov is the U.S. government's official web portal to all federal, state and local government web resources and services.